This demonstration page uses our WeatherBlox Daily Observations layout. Learn more.

Left ArrowRight Arrow

40.97296, -117.73568

Hourly Observations for August 21, 2016

Temp ( °F °C ) Dew Point ( °F °C ) Humidity (%) Winds ( mph kmh ) Pressure ( in mb ) Visibility ( mi km ) Precip ( " mm )
12:56 am 00:56 Clear 56 13.3 27 -2.8 33 33 SE 6 9 29.81 1010 10 16 0.00 0.00
1:56 am 01:56 Clear 58 14.4 27 -2.8 31 31 SE 6 9 29.81 1010 10 16 0.00 0.00
2:56 am 02:56 Clear 54 12.2 28 -2.2 37 37 SE 5 7 29.83 1010 10 16 0.00 0.00
3:56 am 03:56 Clear 48 8.9 25 -3.9 41 41 SE 3 6 29.84 1011 10 16 0.00 0.00
4:56 am 04:56 Clear 48 8.9 24 -4.4 39 39 Calm 29.85 1011 10 16 0.00 0.00
5:56 am 05:56 Clear 50 10 27 -2.8 41 41 SE 6 9 29.85 1011 10 16 0.00 0.00
6:56 am 06:56 Sunny 54 12.2 27 -2.8 35 35 SSE 6 9 29.86 1011 10 16 0.00 0.00
7:56 am 07:56 Sunny 67 19.4 26 -3.3 21 21 SSE 7 11 29.85 1011 10 16 0.00 0.00
8:56 am 08:56 Sunny 76 24.4 31 -0.6 19 19 NE 3 6 29.86 1011 10 16 0.00 0.00
9:56 am 09:56 Sunny 83 28.3 28 -2.2 13 13 Calm 29.86 1011 10 16 0.00 0.00
10:56 am 10:56 Sunny 89 31.7 26 -3.3 10 10 W 9 15 29.85 1011 10 16 0.00 0.00
11:56 am 11:56 Sunny 90 32.2 25 -3.9 9 9 VRB 5 7 29.84 1011 10 16 0.00 0.00
12:56 pm 12:56 Sunny 94 34.4 18 -7.8 6 6 WNW 15 24 29.83 1010 10 16 0.00 0.00
1:56 pm 13:56 Sunny 96 35.6 17 -8.3 5 5 NW 13 20 29.81 1009 10 16 0.00 0.00
2:56 pm 14:56 Sunny 95 35 15 -9.4 5 5 W 9 15 29.79 1009 10 16 0.00 0.00
3:56 pm 15:56 Sunny 96 35.6 18 -7.8 6 6 NW 9 15 29.78 1008 10 16 0.00 0.00
4:56 pm 16:56 Sunny 95 35 20 -6.7 6 6 W 12 19 29.76 1008 10 16 0.00 0.00
5:56 pm 17:56 Sunny 94 34.4 17 -8.3 6 6 NW 15 24 29.75 1007 10 16 0.00 0.00
6:56 pm 18:56 Sunny 89 31.7 19 -7.2 7 7 WNW 10 17 29.75 1008 10 16 0.00 0.00
7:56 pm 19:56 Clear 82 27.8 23 -5 11 11 WNW 7 11 29.76 1008 10 16 0.00 0.00
8:56 pm 20:56 Clear 77 25 22 -5.6 13 13 Calm 29.78 1008 10 16 0.00 0.00
9:56 pm 21:56 Clear 74 23.3 19 -7.2 12 12 W 6 9 29.79 1009 10 16 0.00 0.00
10:56 pm 22:56 Clear 67 19.4 20 -6.7 17 17 W 3 6 29.79 1009 10 16 0.00 0.00
11:56 pm 23:56 Clear 66 18.9 20 -6.7 17 17 WSW 8 13 29.80 1009 10 16 0.00 0.00

Powered by AerisWeather